sat.trackr.live / text

‹ back to catalog

2022-023A

NORAD 51946 · 2022-023A

PAYLOAD ACTIVE UNKNOWN

§ Identity

Operator
Country
PRC
Launch date
2022-03-05
Launch site
XICLF
Launch vehicle
Mass (kg)
RCS (m²)

External: N2YO · Heavens-Above · Gunter

§ Orbital elements

Epoch: 2026-09-20T22:54:30.633408Z

Period
94.86 min
Inclination
63.4775°
Eccentricity
0.0119448
Mean motion
15.18044614 rev/d
Perigee alt
429.5 km
Apogee alt
594.0 km
Semi-major
6,889.9 km
B*
6.5336e-4
RAAN
305.2881°
Arg perigee
346.1891°
Mean anomaly
13.5962°
Rev number
25,225

§ Raw data

2022-023A1 51946U 22023A   26263.95452122  .00015919  00000+0  65336-3 0  99932 51946  63.4775 305.2881 0119448 346.1891  13.5962 15.18044614252251

JSON: /api/v1/satellites/51946 · /tle

For live sub-satellite position, see the globe view (requires WebGL).

§ Visibility from observer

Set your observer location to see the next 7 days of passes ≥ 10°. The values pass through the URL so the page stays shareable.

No JS? Fill the form by hand. The geolocation button needs JavaScript.